Theta_e
324 321 317 319 319 316 314 313 313 315 319 322 329 330 333 335 334 333 332 332 333 335 337 335 336 337 334 333 332 332 330 328 330 335 332 333 333 333 331 329 327 327 326
325 319 316 315 312 309 308 310 313 317 319 320 321 326 329 331 333 334 333 332 332 334 336 336 335 336 336 332 333 332 329 328 331 332 331 332 332 330 330 324 325 325 324
321 318 316 312 309 306 306 306 310 313 317 319 320 320 320 326 329 331 333 333 332 333 336 336 335 333 332 332 330 331 330 329 330 330 330 330 330 331 330 324 325 324 323
320 317 314 310 306 304 304 304 305 307 311 315 317 318 319 317 322 326 329 330 332 333 334 336 337 335 332 331 331 330 330 329 330 330 330 330 331 332 329 325 327 324 322
318 315 312 308 304 304 304 304 304 305 309 310 313 314 316 318 317 312 322 327 330 332 332 334 335 334 332 331 330 331 329 329 329 329 329 330 331 331 329 327 326 323 322
316 314 311 305 303 303 304 304 303 303 303 306 310 313 313 315 316 318 319 322 326 329 331 331 332 331 331 331 331 330 329 329 329 328 328 328 330 330 329 326 324 321 319
315 313 309 305 304 304 304 303 302 302 303 305 307 309 310 311 314 318 319 320 321 324 328 330 329 330 330 330 331 330 329 329 328 327 327 326 327 330 328 326 324 320 319
315 312 308 305 304 304 304 303 303 303 304 305 305 304 302 301 302 308 316 318 320 321 325 328 329 327 328 329 331 330 329 329 327 326 325 326 327 329 327 325 322 317 322
313 310 308 306 305 304 304 303 303 303 303 303 303 302 302 300 299 299 302 310 317 318 321 325 326 324 326 327 328 329 329 329 327 327 326 326 327 329 327 324 319 321 324
311 310 309 307 306 305 304 304 303 303 303 303 302 302 301 300 300 299 299 304 309 316 318 321 323 323 323 326 327 328 329 329 328 327 327 326 327 328 326 323 318 323 325
310 311 310 308 307 306 305 304 304 304 303 303 303 302 301 300 299 299 299 301 305 309 313 316 321 321 322 326 327 328 329 329 328 327 327 326 327 328 326 319 322 324 324
310 311 311 309 308 307 306 306 304 304 304 303 302 301 300 300 299 300 300 300 302 311 315 314 320 321 324 326 326 328 329 328 327 326 327 326 327 326 321 322 324 325 325
312 312 311 310 309 308 307 306 305 305 304 303 301 300 300 299 299 300 301 301 304 311 314 316 318 320 324 325 325 327 327 326 326 328 327 327 322 320 322 322 325 326 325
312 312 311 311 310 308 307 306 305 305 303 302 301 300 299 299 300 301 302 303 308 311 314 317 318 320 324 325 324 325 325 326 326 326 324 323 319 320 320 324 326 326 325
310 310 310 310 311 308 307 305 305 304 302 301 300 299 299 301 303 304 304 305 308 310 312 316 319 319 320 323 323 323 324 324 323 322 319 317 317 318 321 323 326 325 324
309 310 309 309 309 307 306 305 304 302 300 299 299 301 302 303 304 303 305 307 307 309 312 316 318 318 319 320 321 322 322 322 321 320 318 317 317 315 321 323 325 324 324
309 309 308 308 307 306 305 304 302 300 299 299 301 302 302 303 303 303 305 306 307 309 311 315 318 317 317 318 320 321 320 320 320 319 317 319 318 318 321 323 325 323 324
308 308 308 307 306 305 304 301 299 299 299 300 302 302 302 302 303 304 305 305 306 309 311 315 318 317 317 317 319 320 320 321 320 319 319 318 318 320 320 321 322 323 323
308 308 307 306 305 303 300 299 299 298 299 300 301 301 301 302 303 304 305 306 308 309 311 314 316 317 318 318 319 320 320 320 320 318 319 319 320 319 318 321 321 322 320
307 307 306 304 301 300 299 298 298 298 300 300 301 301 301 301 302 304 305 308 311 311 311 314 315 317 317 317 319 319 318 318 319 318 318 319 319 319 321 322 320 319 318
305 305 303 301 300 299 298 297 297 300 301 301 301 301 302 302 303 303 304 309 311 312 312 314 315 316 317 316 315 310 309 310 312 316 317 317 317 318 319 319 319 318 318
304 302 301 300 299 299 297 297 298 300 300 301 301 302 302 303 303 303 306 309 310 313 313 314 315 316 313 316 313 310 310 307 305 307 311 312 312 312 313 315 316 316 316
302 301 300 299 299 298 297 297 299 299 300 301 302 302 303 304 304 305 307 309 310 312 311 315 315 313 314 314 314 313 313 309 304 303 304 307 308 309 310 311 311 312 312
300 300 299 299 298 297 296 298 299 299 299 300 301 303 303 304 305 307 308 308 310 313 314 316 316 313 314 312 312 312 311 308 306 305 302 303 306 308 308 309 309 309 309
299 299 299 298 297 296 297 299 299 299 299 300 300 301 302 304 305 307 307 308 310 312 314 314 316 315 313 313 311 309 309 308 307 306 304 302 303 303 304 306 306 307 306
299 299 298 297 296 296 298 299 299 299 299 300 300 300 300 302 305 307 307 308 309 311 314 315 315 314 313 312 312 311 310 310 307 305 304 302 301 302 305 305 305 306 306
Wind_Speed
12 13 10 7 4 2 0 2 4 4 5 5 2 3 4 10 5 5 5 6 7 8 8 8 9 10 12 11 10 12 13 8 9 10 11 14 17 17 15 16 15 15 13
16 14 10 7 4 2 2 2 3 4 5 6 5 5 4 8 7 9 6 6 8 8 10 11 11 12 13 12 12 13 14 10 12 12 13 17 17 17 17 17 17 15 12
17 13 9 5 2 2 2 2 2 4 5 6 7 7 6 6 7 7 10 7 8 9 9 11 13 12 13 14 13 14 14 14 14 15 15 17 20 19 18 16 14 12 10
15 11 7 3 3 3 2 1 2 3 4 5 6 7 8 8 8 8 8 8 9 8 9 11 12 13 13 15 15 14 15 16 18 17 17 18 18 17 17 12 12 12 9
14 9 5 3 3 2 1 2 3 3 4 5 6 6 7 8 9 9 10 10 10 10 9 10 11 12 13 15 15 15 16 18 19 18 18 20 19 16 15 15 14 12 10
15 11 6 4 3 2 2 2 3 4 4 5 6 7 7 8 9 10 9 10 10 10 9 9 10 12 12 14 15 15 16 19 21 20 19 20 19 17 15 15 15 13 9
16 10 6 4 3 2 1 2 3 4 5 6 7 8 8 9 9 9 9 10 10 10 12 11 10 10 10 12 15 16 17 19 23 22 21 21 20 18 18 15 15 13 12
13 10 7 5 4 3 2 2 3 4 5 6 7 9 10 11 11 10 9 10 8 10 13 12 10 11 12 12 15 17 18 21 24 25 25 23 22 20 19 17 14 14 12
12 9 7 6 5 5 4 3 4 5 6 8 9 10 11 12 12 12 11 11 9 10 12 12 11 12 14 15 17 18 20 23 26 26 27 24 21 22 21 19 17 15 12
13 10 8 7 7 6 5 5 6 6 8 9 11 12 12 13 13 13 12 12 12 12 13 13 12 11 16 15 14 16 23 28 28 29 27 25 24 22 20 19 18 15 12
15 13 11 9 8 7 6 7 7 8 10 11 12 13 14 15 15 13 12 12 12 13 14 13 12 13 15 15 12 17 25 33 34 31 28 23 23 21 20 19 17 15 12
18 16 14 12 11 9 8 8 8 10 11 12 14 14 15 15 15 14 13 12 12 11 12 14 11 11 13 13 12 16 22 30 32 32 30 25 17 18 17 16 15 12 13
19 16 15 14 13 12 11 10 10 10 12 12 13 14 15 15 15 14 13 11 10 9 11 10 12 13 14 16 15 21 25 27 29 29 30 23 17 17 16 18 15 13 16
19 17 15 15 16 14 13 12 10 11 12 12 13 14 15 15 14 13 12 10 8 7 9 7 9 11 17 19 21 22 24 28 31 34 31 23 20 18 16 16 16 15 18
17 16 15 14 15 15 13 11 11 11 12 13 14 13 14 14 13 12 13 9 7 8 9 7 9 10 18 22 20 26 27 30 30 31 29 23 22 16 17 17 16 16 19
17 15 14 12 13 13 11 10 9 10 12 13 13 12 10 11 10 12 9 7 7 9 9 9 9 13 14 22 23 25 28 29 30 27 22 20 16 16 21 18 16 16 20
18 14 13 11 12 10 8 7 8 10 11 11 11 10 10 9 12 12 9 6 7 11 11 9 9 14 14 18 23 23 23 24 22 22 21 19 20 21 21 17 15 19 23
16 16 12 10 9 7 5 6 7 9 10 10 9 9 9 9 8 7 7 8 7 10 10 9 6 13 18 19 20 22 22 21 21 21 20 21 20 22 21 20 15 17 29
16 15 13 10 8 6 4 5 7 7 8 9 8 8 7 7 7 9 8 8 9 8 7 8 7 15 18 20 20 23 23 23 25 23 19 17 17 15 14 14 15 19 26
14 13 10 9 6 4 3 5 6 6 7 5 6 6 5 5 5 8 9 9 8 6 6 7 7 12 19 19 18 20 17 20 24 23 21 20 16 14 18 23 29 27 24
15 13 10 8 5 3 3 5 4 3 2 3 5 6 5 5 5 8 9 8 9 8 7 7 8 10 16 19 21 24 24 23 27 30 28 28 30 30 34 31 27 25 24
14 11 9 7 5 2 3 3 2 3 1 3 6 4 5 5 4 5 7 8 9 8 3 5 6 16 11 20 8 11 3 10 25 28 30 28 24 24 23 21 18 19 18
13 11 9 7 3 2 2 2 2 3 1 1 4 6 5 5 2 5 5 7 9 5 3 5 15 18 16 15 26 7 3 3 6 17 25 28 25 25 24 21 17 15 13
11 10 9 7 4 2 2 2 1 1 0 2 6 4 4 3 3 5 5 6 9 9 4 3 13 15 20 21 16 13 11 18 4 3 19 21 20 21 19 19 15 14 12
11 11 10 7 4 2 1 1 1 2 2 1 5 4 4 4 4 4 4 6 9 8 1 1 9 18 23 22 22 20 23 23 14 5 4 5 16 15 16 17 13 13 11
11 12 11 7 5 3 2 1 1 4 3 2 5 6 6 4 4 3 4 7 9 6 9 6 11 18 23 23 27 26 22 10 11 9 5 5 6 7 10 11 9 9 9
Wind_Direction
173 165 170 162 163 163 356 338 339 344 351 353 310 310 325 7 336 310 301 287 270 258 247 233 224 218 220 216 189 183 178 185 170 157 140 143 133 128 127 123 118 107 103
170 167 168 173 190 243 295 335 7 12 7 358 337 323 310 342 356 1 302 280 288 276 266 258 231 230 224 222 216 201 192 196 175 164 154 146 137 131 129 118 112 107 100
167 167 171 180 226 283 290 316 357 19 24 13 4 351 307 293 330 318 359 326 281 281 278 273 259 243 231 222 217 206 204 207 191 171 163 155 142 140 134 123 120 118 114
168 167 170 195 242 256 269 314 344 6 15 14 10 1 350 329 286 288 306 326 332 295 283 277 273 256 242 230 221 217 214 203 193 180 175 167 157 153 142 136 131 127 127
169 169 180 226 248 260 294 327 354 2 8 7 7 4 355 345 332 294 273 272 316 323 303 288 279 271 250 232 228 217 217 204 193 189 183 171 162 155 144 135 137 137 161
173 178 188 212 234 256 282 333 346 351 356 3 0 3 357 346 338 332 324 306 292 313 324 302 289 265 254 241 233 217 213 204 194 195 191 180 169 159 147 142 145 159 159
176 180 188 207 221 222 272 328 336 350 354 1 360 355 350 344 340 338 334 331 304 298 307 308 292 285 261 250 236 222 212 202 196 196 190 182 174 163 150 153 153 159 145
183 184 192 202 215 229 236 271 307 330 338 343 344 339 332 326 322 321 326 327 318 297 293 302 288 289 276 253 240 226 214 201 196 194 186 180 173 166 156 156 151 149 144
185 190 198 211 219 230 245 258 282 308 315 321 323 325 323 318 315 310 301 301 305 296 296 293 278 275 282 261 242 230 210 203 197 194 187 181 182 167 160 156 153 152 147
191 197 211 221 229 237 249 261 269 289 302 310 315 319 318 315 312 306 296 287 283 291 292 289 272 267 273 264 244 224 205 202 200 195 190 186 184 167 159 155 152 152 152
198 205 216 225 226 235 251 269 269 287 299 304 307 311 312 312 310 305 299 288 283 280 283 270 264 253 266 259 241 226 208 200 197 195 192 189 189 172 154 152 151 154 151
206 212 219 224 231 235 247 265 273 292 297 301 307 310 311 312 309 306 300 295 282 281 282 265 259 266 256 233 228 220 205 198 193 196 189 191 191 147 144 153 152 156 147
215 221 225 229 231 234 242 259 272 291 296 299 305 306 307 308 306 302 301 299 285 277 280 273 250 260 240 213 206 191 197 190 189 189 179 171 146 148 156 155 154 154 151
218 228 229 232 233 234 241 256 275 292 296 301 303 304 306 308 308 304 302 299 286 276 292 280 260 258 208 199 187 174 169 172 164 164 157 148 139 148 160 171 155 151 151
225 227 229 229 226 230 239 254 274 293 299 301 305 309 309 311 313 311 308 295 281 295 291 295 250 242 200 176 176 166 163 159 152 148 150 154 152 161 170 176 156 164 151
224 224 225 218 220 227 238 259 282 295 300 304 308 313 312 311 313 316 314 301 294 304 292 304 255 236 209 204 181 171 164 162 165 170 175 178 185 170 189 179 170 169 156
220 217 214 214 217 221 236 267 289 301 306 306 306 314 320 317 316 312 310 309 312 291 285 308 251 220 204 191 176 173 175 178 165 170 166 162 166 182 185 176 183 176 150
218 208 205 204 202 211 242 272 297 301 304 309 306 310 323 329 332 332 325 317 306 301 304 301 251 204 203 192 163 170 173 175 180 175 166 170 180 188 186 186 192 180 145
201 193 190 184 191 208 242 284 296 304 308 312 315 325 340 327 338 340 331 310 295 295 294 303 257 195 175 180 162 161 170 164 170 161 163 167 175 182 191 190 192 155 127
184 180 176 177 182 206 258 292 307 315 337 352 353 348 341 332 322 321 318 318 333 322 286 259 242 188 179 169 152 137 129 150 165 150 141 132 134 147 123 147 124 118 114
168 171 174 173 187 223 289 316 325 343 356 30 359 339 343 337 331 310 321 339 344 335 300 267 235 188 178 155 122 90 86 107 120 134 127 118 107 104 114 118 119 119 117
167 168 170 177 192 243 306 321 322 313 313 360 357 355 342 346 309 301 333 344 349 339 292 288 213 141 184 170 146 107 109 71 71 103 119 114 111 111 108 109 119 120 124
169 174 177 177 188 248 301 312 315 323 267 351 352 351 4 15 308 334 351 357 350 355 297 222 179 164 150 187 162 125 131 140 95 67 93 105 108 107 111 116 118 123 123
174 175 177 180 187 217 278 318 332 15 188 19 337 347 357 349 15 11 11 8 359 35 67 205 181 178 152 143 127 125 134 144 114 113 65 91 102 103 106 110 115 114 111
176 176 180 180 189 198 256 351 343 274 244 307 311 313 348 5 40 29 21 17 10 37 94 93 184 172 150 134 125 117 111 100 106 105 103 81 96 102 110 112 115 110 103
174 179 182 184 192 197 201 178 278 260 272 290 305 323 335 346 35 18 21 18 10 23 59 100 127 119 152 141 135 130 128 137 128 105 97 81 106 78 103 119 119 112 102